Tracking 19484 objects as of 20-Jan-2019
HD Live streaming from Space Station
objects crossing your sky now

MICRO LABSAT

Track MICRO LABSAT now!
10-day predictions
MICRO LABSAT is classified as:


NORAD ID: 27600
Int'l Code: 2002-056D
Perigee: 792.7 km
Apogee: 807.6 km
Inclination: 98.5 °
Period: 100.7 minutes
Semi major axis: 7171 km
RCS: 0.4739 m2 (medium)
Launch date: December 14, 2002
Source: Japan (JPN)
Launch site: TANEGASHIMA SPACE CENTER (TNSTA)

Research and development of microsatellite technology.
aabbcc
Your satellite tracking list
Your tracking list is empty




NASA's NSSDC Master Catalog

Two Line Element Set (TLE):
1 27600U 02056D   19019.48806288 -.00000014  00000-0  11271-4 0  9994
2 27600  98.4721 330.5519 0010379 335.1467  24.9214 14.29617996839852
Source of the keplerian elements: AFSPC